TimeEDT,TemperatureF,Dew PointF,Humidity,Sea Level PressureIn,VisibilityMPH,Wind Direction,Wind SpeedMPH,Gust SpeedMPH,PrecipitationIn,Events,Conditions,WindDirDegrees,DateUTC
12:52 AM,75.0,73.0,94,30.02,10.0,Calm,Calm,-,N/A,,Mostly Cloudy,0,2013-08-03 04:52:00
1:52 AM,75.0,73.0,94,30.02,10.0,SSW,3.5,-,N/A,,Scattered Clouds,200,2013-08-03 05:52:00
2:52 AM,75.0,73.0,94,30.01,10.0,South,4.6,-,0.00,,Scattered Clouds,190,2013-08-03 06:52:00
3:52 AM,75.0,73.9,96,29.99,8.0,SSW,6.9,-,N/A,,Scattered Clouds,210,2013-08-03 07:52:00
4:52 AM,75.0,73.0,94,29.99,9.0,SW,5.8,-,N/A,,Partly Cloudy,230,2013-08-03 08:52:00
5:52 AM,73.9,73.0,97,30.00,9.0,SW,4.6,-,N/A,,Mostly Cloudy,230,2013-08-03 09:52:00
6:52 AM,73.9,73.0,97,30.01,7.0,Calm,Calm,-,N/A,,Mostly Cloudy,0,2013-08-03 10:52:00
7:52 AM,75.0,73.9,96,30.01,5.0,Calm,Calm,-,N/A,,Mostly Cloudy,0,2013-08-03 11:52:00
8:52 AM,77.0,75.0,94,30.01,7.0,South,4.6,-,N/A,,Mostly Cloudy,170,2013-08-03 12:52:00
9:52 AM,79.0,73.9,84,30.01,10.0,SSW,5.8,-,N/A,,Mostly Cloudy,210,2013-08-03 13:52:00
10:52 AM,82.9,75.0,77,30.01,10.0,SW,5.8,-,N/A,,Mostly Cloudy,230,2013-08-03 14:52:00
11:52 AM,84.0,73.0,69,30.01,10.0,SW,5.8,-,N/A,,Mostly Cloudy,230,2013-08-03 15:52:00
12:52 PM,84.0,72.0,67,29.99,10.0,Variable,3.5,-,N/A,,Mostly Cloudy,0,2013-08-03 16:52:00
1:52 PM,87.1,71.1,59,29.99,10.0,SW,10.4,-,N/A,,Mostly Cloudy,230,2013-08-03 17:52:00
2:52 PM,87.1,70.0,57,29.98,10.0,SW,8.1,-,N/A,,Overcast,230,2013-08-03 18:52:00
3:52 PM,87.1,70.0,57,29.96,10.0,West,9.2,-,N/A,,Overcast,260,2013-08-03 19:52:00
4:52 PM,86.0,69.1,57,29.95,10.0,West,6.9,-,N/A,,Overcast,260,2013-08-03 20:52:00
5:52 PM,86.0,68.0,55,29.94,10.0,WSW,5.8,-,N/A,,Overcast,250,2013-08-03 21:52:00
6:52 PM,82.9,70.0,65,29.94,10.0,West,4.6,-,N/A,,Overcast,260,2013-08-03 22:52:00
7:52 PM,81.0,70.0,69,29.95,10.0,SW,3.5,-,N/A,,Overcast,230,2013-08-03 23:52:00
8:52 PM,79.0,70.0,74,29.96,10.0,WSW,3.5,-,N/A,,Overcast,250,2013-08-04 00:52:00
9:52 PM,77.0,71.1,82,29.96,10.0,SW,4.6,-,N/A,,Mostly Cloudy,230,2013-08-04 01:52:00
10:52 PM,75.9,71.1,85,29.97,10.0,WNW,3.5,-,N/A,,Mostly Cloudy,290,2013-08-04 02:52:00
11:52 PM,73.0,70.0,90,29.97,10.0,Calm,Calm,-,N/A,,Mostly Cloudy,0,2013-08-04 03:52:00